Today
| Time | Wind Dr | Wind Spd mph |
Wind Gust mph |
Hum In % |
Humid % |
TempI F |
Temp F |
Raw Bar in |
Tot Rain in |
UV | Solar W/sqm |
DailyRain in |
HourRain in |
24HrRain in |
RainRate in |
|---|---|---|---|---|---|---|---|---|---|---|---|---|---|---|---|
| 09/05/26 12:01:31 AM | 29 | 0.0 | 0.0 | 47 | 55 | 72.9 | 66.4 | 29.941 | 7.41 | 0.0 | 0 | 0.00 | 0.00 | 0.00 | 0.00 |
| 09/05/26 12:02:23 AM | 32 | 0.0 | 0.0 | 47 | 55 | 72.8 | 66.4 | 29.941 | 7.41 | 0.0 | 0 | 0.00 | 0.00 | 0.00 | 0.00 |
| 09/05/26 12:03:32 AM | 29 | 0.0 | 0.0 | 47 | 55 | 72.8 | 66.3 | 29.941 | 7.41 | 0.0 | 0 | 0.00 | 0.00 | 0.00 | 0.00 |
| 09/05/26 12:04:24 AM | 35 | 0.0 | 0.0 | 47 | 55 | 72.8 | 66.3 | 29.941 | 7.41 | 0.0 | 0 | 0.00 | 0.00 | 0.00 | 0.00 |
| 09/05/26 12:05:18 AM | 29 | 0.0 | 0.0 | 47 | 55 | 72.8 | 66.3 | 29.942 | 7.41 | 0.0 | 0 | 0.00 | 0.00 | 0.00 | 0.00 |
| 09/05/26 12:06:30 AM | 25 | 0.0 | 0.0 | 47 | 55 | 72.8 | 66.2 | 29.943 | 7.41 | 0.0 | 0 | 0.00 | 0.00 | 0.00 | 0.00 |
| 09/05/26 12:07:22 AM | 32 | 0.0 | 0.0 | 47 | 55 | 72.8 | 66.2 | 29.942 | 7.41 | 0.0 | 0 | 0.00 | 0.00 | 0.00 | 0.00 |
| 09/05/26 12:08:31 AM | 32 | 0.0 | 0.0 | 47 | 55 | 72.8 | 66.2 | 29.940 | 7.41 | 0.0 | 0 | 0.00 | 0.00 | 0.00 | 0.00 |
| 09/05/26 12:09:22 AM | 32 | 0.0 | 0.0 | 47 | 55 | 72.8 | 66.1 | 29.940 | 7.41 | 0.0 | 0 | 0.00 | 0.00 | 0.00 | 0.00 |
| 09/05/26 12:10:35 AM | 29 | 0.0 | 0.0 | 47 | 55 | 72.8 | 66.1 | 29.940 | 7.41 | 0.0 | 0 | 0.00 | 0.00 | 0.00 | 0.00 |
| 09/05/26 12:11:26 AM | 29 | 0.0 | 0.0 | 47 | 55 | 72.7 | 66.0 | 29.939 | 7.41 | 0.0 | 0 | 0.00 | 0.00 | 0.00 | 0.00 |
| 09/05/26 12:12:35 AM | 34 | 0.0 | 0.0 | 47 | 56 | 72.7 | 66.0 | 29.942 | 7.41 | 0.0 | 0 | 0.00 | 0.00 | 0.00 | 0.00 |
| 09/05/26 12:13:27 AM | 29 | 0.0 | 0.0 | 47 | 56 | 72.7 | 65.9 | 29.942 | 7.41 | 0.0 | 0 | 0.00 | 0.00 | 0.00 | 0.00 |
| 09/05/26 12:14:36 AM | 30 | 0.0 | 0.0 | 47 | 56 | 72.7 | 65.9 | 29.942 | 7.41 | 0.0 | 0 | 0.00 | 0.00 | 0.00 | 0.00 |
| 09/05/26 12:15:31 AM | 30 | 0.0 | 0.0 | 47 | 56 | 72.7 | 65.8 | 29.944 | 7.41 | 0.0 | 0 | 0.00 | 0.00 | 0.00 | 0.00 |
| 09/05/26 12:16:16 AM | 28 | 0.0 | 0.0 | 47 | 56 | 72.7 | 65.8 | 29.943 | 7.41 | 0.0 | 0 | 0.00 | 0.00 | 0.00 | 0.00 |
| 09/05/26 12:17:29 AM | 30 | 0.0 | 0.0 | 47 | 56 | 72.6 | 65.8 | 29.944 | 7.41 | 0.0 | 0 | 0.00 | 0.00 | 0.00 | 0.00 |
| 09/05/26 12:18:21 AM | 29 | 0.0 | 0.0 | 47 | 56 | 72.7 | 65.8 | 29.943 | 7.41 | 0.0 | 0 | 0.00 | 0.00 | 0.00 | 0.00 |
| 09/05/26 12:19:30 AM | 28 | 0.0 | 0.0 | 47 | 56 | 72.7 | 65.7 | 29.945 | 7.41 | 0.0 | 0 | 0.00 | 0.00 | 0.00 | 0.00 |
| 09/05/26 12:20:22 AM | 32 | 0.0 | 0.0 | 47 | 56 | 72.7 | 65.7 | 29.945 | 7.41 | 0.0 | 0 | 0.00 | 0.00 | 0.00 | 0.00 |
| 09/05/26 12:21:34 AM | 24 | 0.0 | 0.0 | 47 | 56 | 72.7 | 65.7 | 29.944 | 7.41 | 0.0 | 0 | 0.00 | 0.00 | 0.00 | 0.00 |
| 09/05/26 12:22:26 AM | 34 | 0.0 | 0.0 | 47 | 56 | 72.7 | 65.6 | 29.946 | 7.41 | 0.0 | 0 | 0.00 | 0.00 | 0.00 | 0.00 |
| 09/05/26 12:23:17 AM | 30 | 0.0 | 0.0 | 47 | 56 | 72.7 | 65.6 | 29.944 | 7.41 | 0.0 | 0 | 0.00 | 0.00 | 0.00 | 0.00 |
| 09/05/26 12:24:24 AM | 29 | 0.0 | 0.0 | 47 | 56 | 72.7 | 65.6 | 29.946 | 7.41 | 0.0 | 0 | 0.00 | 0.00 | 0.00 | 0.00 |
| 09/05/26 12:25:16 AM | 28 | 0.0 | 0.0 | 47 | 56 | 72.7 | 65.6 | 29.942 | 7.41 | 0.0 | 0 | 0.00 | 0.00 | 0.00 | 0.00 |
| 09/05/26 12:26:28 AM | 28 | 0.0 | 0.0 | 47 | 56 | 72.7 | 65.5 | 29.945 | 7.41 | 0.0 | 0 | 0.00 | 0.00 | 0.00 | 0.00 |
| 09/05/26 12:27:20 AM | 29 | 0.0 | 0.0 | 47 | 56 | 72.7 | 65.5 | 29.944 | 7.41 | 0.0 | 0 | 0.00 | 0.00 | 0.00 | 0.00 |
| 09/05/26 12:28:33 AM | 32 | 0.0 | 0.0 | 47 | 56 | 72.7 | 65.4 | 29.945 | 7.41 | 0.0 | 0 | 0.00 | 0.00 | 0.00 | 0.00 |
| 09/05/26 12:29:24 AM | 30 | 0.0 | 0.0 | 47 | 56 | 72.7 | 65.4 | 29.944 | 7.41 | 0.0 | 0 | 0.00 | 0.00 | 0.00 | 0.00 |
| 09/05/26 12:30:52 AM | 28 | 0.0 | 0.0 | 47 | 56 | 72.7 | 65.4 | 29.946 | 7.41 | 0.0 | 0 | 0.00 | 0.00 | 0.00 | 0.00 |
| 09/05/26 12:31:25 AM | 31 | 0.0 | 0.0 | 47 | 57 | 72.7 | 65.3 | 29.948 | 7.41 | 0.0 | 0 | 0.00 | 0.00 | 0.00 | 0.00 |
| 09/05/26 12:32:35 AM | 31 | 0.0 | 0.0 | 47 | 57 | 72.6 | 65.3 | 29.947 | 7.41 | 0.0 | 0 | 0.00 | 0.00 | 0.00 | 0.00 |
| 09/05/26 12:33:26 AM | 32 | 0.0 | 0.0 | 47 | 57 | 72.6 | 65.3 | 29.948 | 7.41 | 0.0 | 0 | 0.00 | 0.00 | 0.00 | 0.00 |
| 09/05/26 12:34:21 AM | 32 | 0.0 | 0.0 | 47 | 57 | 72.7 | 65.2 | 29.946 | 7.41 | 0.0 | 0 | 0.00 | 0.00 | 0.00 | 0.00 |
| 09/05/26 12:35:28 AM | 34 | 0.0 | 0.0 | 47 | 57 | 72.6 | 65.2 | 29.949 | 7.41 | 0.0 | 0 | 0.00 | 0.00 | 0.00 | 0.00 |
| 09/05/26 12:36:22 AM | 30 | 0.0 | 0.0 | 47 | 57 | 72.6 | 65.2 | 29.950 | 7.41 | 0.0 | 0 | 0.00 | 0.00 | 0.00 | 0.00 |
| 09/05/26 12:37:35 AM | 28 | 0.0 | 0.0 | 47 | 57 | 72.6 | 65.1 | 29.946 | 7.41 | 0.0 | 0 | 0.00 | 0.00 | 0.00 | 0.00 |
| 09/05/26 12:38:26 AM | 32 | 0.0 | 0.0 | 47 | 57 | 72.6 | 65.1 | 29.948 | 7.41 | 0.0 | 0 | 0.00 | 0.00 | 0.00 | 0.00 |
| 09/05/26 12:39:18 AM | 29 | 0.0 | 0.0 | 47 | 57 | 72.6 | 65.0 | 29.947 | 7.41 | 0.0 | 0 | 0.00 | 0.00 | 0.00 | 0.00 |
| 09/05/26 12:40:31 AM | 28 | 0.0 | 0.0 | 47 | 57 | 72.6 | 65.0 | 29.951 | 7.41 | 0.0 | 0 | 0.00 | 0.00 | 0.00 | 0.00 |
| 09/05/26 12:41:19 AM | 34 | 0.0 | 0.0 | 47 | 57 | 72.6 | 65.0 | 29.950 | 7.41 | 0.0 | 0 | 0.00 | 0.00 | 0.00 | 0.00 |
| 09/05/26 12:42:32 AM | 29 | 0.0 | 0.0 | 47 | 57 | 72.6 | 64.9 | 29.949 | 7.41 | 0.0 | 0 | 0.00 | 0.00 | 0.00 | 0.00 |
| 09/05/26 12:43:23 AM | 28 | 0.0 | 0.0 | 47 | 57 | 72.6 | 64.9 | 29.949 | 7.41 | 0.0 | 0 | 0.00 | 0.00 | 0.00 | 0.00 |
| 09/05/26 12:44:18 AM | 32 | 0.0 | 0.0 | 47 | 58 | 72.6 | 64.9 | 29.948 | 7.41 | 0.0 | 0 | 0.00 | 0.00 | 0.00 | 0.00 |
| 09/05/26 12:45:52 AM | 25 | 0.0 | 0.0 | 47 | 58 | 72.6 | 64.8 | 29.950 | 7.41 | 0.0 | 0 | 0.00 | 0.00 | 0.00 | 0.00 |
| 09/05/26 12:46:22 AM | 34 | 0.0 | 0.0 | 47 | 58 | 72.6 | 64.8 | 29.949 | 7.41 | 0.0 | 0 | 0.00 | 0.00 | 0.00 | 0.00 |
| 09/05/26 12:47:29 AM | 31 | 0.0 | 0.0 | 47 | 58 | 72.6 | 64.7 | 29.949 | 7.41 | 0.0 | 0 | 0.00 | 0.00 | 0.00 | 0.00 |
| 09/05/26 12:48:23 AM | 30 | 0.0 | 0.0 | 47 | 58 | 72.6 | 64.7 | 29.951 | 7.41 | 0.0 | 0 | 0.00 | 0.00 | 0.00 | 0.00 |
| 09/05/26 12:49:33 AM | 32 | 0.0 | 0.0 | 47 | 58 | 72.6 | 64.7 | 29.949 | 7.41 | 0.0 | 0 | 0.00 | 0.00 | 0.00 | 0.00 |
| 09/05/26 12:50:25 AM | 30 | 0.0 | 0.0 | 47 | 59 | 72.5 | 64.6 | 29.948 | 7.41 | 0.0 | 0 | 0.00 | 0.00 | 0.00 | 0.00 |
| 09/05/26 12:51:19 AM | 30 | 0.0 | 0.0 | 47 | 59 | 72.5 | 64.6 | 29.949 | 7.41 | 0.0 | 0 | 0.00 | 0.00 | 0.00 | 0.00 |
| 09/05/26 12:52:26 AM | 32 | 0.0 | 0.0 | 47 | 59 | 72.5 | 64.5 | 29.949 | 7.41 | 0.0 | 0 | 0.00 | 0.00 | 0.00 | 0.00 |
| 09/05/26 12:53:17 AM | 31 | 0.0 | 0.0 | 47 | 59 | 72.5 | 64.5 | 29.947 | 7.41 | 0.0 | 0 | 0.00 | 0.00 | 0.00 | 0.00 |
| 09/05/26 12:54:30 AM | 29 | 0.0 | 0.0 | 47 | 59 | 72.5 | 64.5 | 29.951 | 7.41 | 0.0 | 0 | 0.00 | 0.00 | 0.00 | 0.00 |
| 09/05/26 12:55:22 AM | 28 | 0.0 | 0.0 | 47 | 59 | 72.5 | 64.5 | 29.950 | 7.41 | 0.0 | 0 | 0.00 | 0.00 | 0.00 | 0.00 |
| 09/05/26 12:56:34 AM | 29 | 0.0 | 0.0 | 47 | 59 | 72.5 | 64.5 | 29.951 | 7.41 | 0.0 | 0 | 0.00 | 0.00 | 0.00 | 0.00 |
| 09/05/26 12:57:23 AM | 26 | 0.0 | 0.0 | 47 | 59 | 72.5 | 64.4 | 29.949 | 7.41 | 0.0 | 0 | 0.00 | 0.00 | 0.00 | 0.00 |
| 09/05/26 12:58:36 AM | 32 | 0.0 | 0.0 | 47 | 59 | 72.5 | 64.4 | 29.950 | 7.41 | 0.0 | 0 | 0.00 | 0.00 | 0.00 | 0.00 |
| 09/05/26 12:59:27 AM | 31 | 0.0 | 0.0 | 47 | 59 | 72.5 | 64.4 | 29.950 | 7.41 | 0.0 | 0 | 0.00 | 0.00 | 0.00 | 0.00 |
| 09/05/26 1:00:22 AM | 29 | 0.0 | 0.0 | 47 | 59 | 72.5 | 64.4 | 29.949 | 7.41 | 0.0 | 0 | 0.00 | 0.00 | 0.00 | 0.00 |
| 09/05/26 1:01:31 AM | 32 | 0.0 | 0.0 | 47 | 59 | 72.5 | 64.3 | 29.951 | 7.41 | 0.0 | 0 | 0.00 | 0.00 | 0.00 | 0.00 |
| 09/05/26 1:02:23 AM | 32 | 0.0 | 0.0 | 47 | 59 | 72.5 | 64.3 | 29.950 | 7.41 | 0.0 | 0 | 0.00 | 0.00 | 0.00 | 0.00 |
| 09/05/26 1:03:30 AM | 28 | 0.0 | 0.0 | 47 | 59 | 72.5 | 64.3 | 29.950 | 7.41 | 0.0 | 0 | 0.00 | 0.00 | 0.00 | 0.00 |
| 09/05/26 1:04:21 AM | 32 | 0.0 | 0.0 | 47 | 59 | 72.4 | 64.3 | 29.951 | 7.41 | 0.0 | 0 | 0.00 | 0.00 | 0.00 | 0.00 |
| 09/05/26 1:05:34 AM | 30 | 0.0 | 0.0 | 47 | 59 | 72.4 | 64.3 | 29.947 | 7.41 | 0.0 | 0 | 0.00 | 0.00 | 0.00 | 0.00 |
| 09/05/26 1:06:25 AM | 31 | 0.0 | 0.0 | 47 | 59 | 72.5 | 64.3 | 29.949 | 7.41 | 0.0 | 0 | 0.00 | 0.00 | 0.00 | 0.00 |
| 09/05/26 1:07:17 AM | 31 | 0.0 | 0.0 | 47 | 59 | 72.5 | 64.2 | 29.949 | 7.41 | 0.0 | 0 | 0.00 | 0.00 | 0.00 | 0.00 |
| 09/05/26 1:08:24 AM | 32 | 0.0 | 0.0 | 47 | 59 | 72.5 | 64.3 | 29.950 | 7.41 | 0.0 | 0 | 0.00 | 0.00 | 0.00 | 0.00 |
| 09/05/26 1:09:18 AM | 32 | 0.0 | 0.0 | 47 | 59 | 72.4 | 64.3 | 29.950 | 7.41 | 0.0 | 0 | 0.00 | 0.00 | 0.00 | 0.00 |
| 09/05/26 1:10:28 AM | 31 | 0.0 | 0.0 | 47 | 59 | 72.5 | 64.2 | 29.950 | 7.41 | 0.0 | 0 | 0.00 | 0.00 | 0.00 | 0.00 |
| 09/05/26 1:11:19 AM | 35 | 0.0 | 0.0 | 47 | 59 | 72.4 | 64.2 | 29.949 | 7.41 | 0.0 | 0 | 0.00 | 0.00 | 0.00 | 0.00 |
| 09/05/26 1:12:32 AM | 31 | 0.0 | 0.0 | 47 | 59 | 72.5 | 64.2 | 29.951 | 7.41 | 0.0 | 0 | 0.00 | 0.00 | 0.00 | 0.00 |
| 09/05/26 1:13:21 AM | 31 | 0.0 | 0.0 | 47 | 59 | 72.4 | 64.2 | 29.951 | 7.41 | 0.0 | 0 | 0.00 | 0.00 | 0.00 | 0.00 |
| 09/05/26 1:14:30 AM | 28 | 0.0 | 0.0 | 47 | 59 | 72.4 | 64.2 | 29.952 | 7.41 | 0.0 | 0 | 0.00 | 0.00 | 0.00 | 0.00 |
| 09/05/26 1:15:25 AM | 32 | 0.0 | 0.0 | 47 | 59 | 72.4 | 64.2 | 29.952 | 7.41 | 0.0 | 0 | 0.00 | 0.00 | 0.00 | 0.00 |
| 09/05/26 1:16:35 AM | 32 | 0.0 | 0.0 | 47 | 59 | 72.4 | 64.1 | 29.952 | 7.41 | 0.0 | 0 | 0.00 | 0.00 | 0.00 | 0.00 |
| 09/05/26 1:17:26 AM | 28 | 0.0 | 0.0 | 47 | 59 | 72.4 | 64.1 | 29.952 | 7.41 | 0.0 | 0 | 0.00 | 0.00 | 0.00 | 0.00 |
| 09/05/26 1:18:21 AM | 28 | 0.0 | 0.0 | 47 | 59 | 72.4 | 64.1 | 29.952 | 7.41 | 0.0 | 0 | 0.00 | 0.00 | 0.00 | 0.00 |
| 09/05/26 1:19:27 AM | 28 | 0.0 | 0.0 | 47 | 59 | 72.4 | 64.1 | 29.952 | 7.41 | 0.0 | 0 | 0.00 | 0.00 | 0.00 | 0.00 |
| 09/05/26 1:20:19 AM | 31 | 0.0 | 0.0 | 47 | 59 | 72.4 | 64.0 | 29.952 | 7.41 | 0.0 | 0 | 0.00 | 0.00 | 0.00 | 0.00 |
| 09/05/26 1:21:32 AM | 31 | 0.0 | 0.0 | 47 | 59 | 72.4 | 64.0 | 29.952 | 7.41 | 0.0 | 0 | 0.00 | 0.00 | 0.00 | 0.00 |
| 09/05/26 1:22:23 AM | 31 | 0.0 | 0.0 | 47 | 59 | 72.4 | 64.0 | 29.950 | 7.41 | 0.0 | 0 | 0.00 | 0.00 | 0.00 | 0.00 |
| 09/05/26 1:23:33 AM | 30 | 0.0 | 0.0 | 47 | 59 | 72.3 | 63.9 | 29.947 | 7.41 | 0.0 | 0 | 0.00 | 0.00 | 0.00 | 0.00 |
| 09/05/26 1:24:22 AM | 31 | 0.0 | 0.0 | 47 | 59 | 72.4 | 63.9 | 29.949 | 7.41 | 0.0 | 0 | 0.00 | 0.00 | 0.00 | 0.00 |
| 09/05/26 1:25:34 AM | 30 | 0.0 | 0.0 | 47 | 60 | 72.4 | 63.9 | 29.949 | 7.41 | 0.0 | 0 | 0.00 | 0.00 | 0.00 | 0.00 |
| 09/05/26 1:26:26 AM | 28 | 0.0 | 0.0 | 47 | 60 | 72.3 | 63.9 | 29.947 | 7.41 | 0.0 | 0 | 0.00 | 0.00 | 0.00 | 0.00 |
| 09/05/26 1:27:17 AM | 32 | 0.0 | 0.0 | 47 | 60 | 72.3 | 63.9 | 29.948 | 7.41 | 0.0 | 0 | 0.00 | 0.00 | 0.00 | 0.00 |
| 09/05/26 1:28:27 AM | 26 | 0.0 | 0.0 | 47 | 60 | 72.3 | 63.9 | 29.946 | 7.41 | 0.0 | 0 | 0.00 | 0.00 | 0.00 | 0.00 |
| 09/05/26 1:29:34 AM | 30 | 0.0 | 0.0 | 47 | 60 | 72.3 | 63.9 | 29.947 | 7.41 | 0.0 | 0 | 0.00 | 0.00 | 0.00 | 0.00 |
| 09/05/26 1:30:28 AM | 34 | 0.0 | 0.0 | 47 | 60 | 72.3 | 63.9 | 29.948 | 7.41 | 0.0 | 0 | 0.00 | 0.00 | 0.00 | 0.00 |
| 09/05/26 1:31:20 AM | 30 | 0.0 | 0.0 | 47 | 60 | 72.3 | 63.9 | 29.945 | 7.41 | 0.0 | 0 | 0.00 | 0.00 | 0.00 | 0.00 |
| 09/05/26 1:32:33 AM | 32 | 0.0 | 0.0 | 47 | 60 | 72.3 | 63.9 | 29.945 | 7.41 | 0.0 | 0 | 0.00 | 0.00 | 0.00 | 0.00 |
| 09/05/26 1:33:21 AM | 32 | 0.0 | 0.0 | 47 | 60 | 72.3 | 63.9 | 29.946 | 7.41 | 0.0 | 0 | 0.00 | 0.00 | 0.00 | 0.00 |
| 09/05/26 1:34:31 AM | 31 | 0.0 | 0.0 | 47 | 60 | 72.3 | 63.9 | 29.945 | 7.41 | 0.0 | 0 | 0.00 | 0.00 | 0.00 | 0.00 |
| 09/05/26 1:35:22 AM | 32 | 0.0 | 0.0 | 47 | 60 | 72.3 | 63.9 | 29.942 | 7.41 | 0.0 | 0 | 0.00 | 0.00 | 0.00 | 0.00 |
| 09/05/26 1:36:35 AM | 28 | 0.0 | 0.0 | 47 | 60 | 72.2 | 63.9 | 29.944 | 7.41 | 0.0 | 0 | 0.00 | 0.00 | 0.00 | 0.00 |
| 09/05/26 1:37:27 AM | 31 | 0.0 | 0.0 | 47 | 60 | 72.2 | 63.9 | 29.943 | 7.41 | 0.0 | 0 | 0.00 | 0.00 | 0.00 | 0.00 |
| 09/05/26 1:38:18 AM | 26 | 2.0 | 2.0 | 47 | 60 | 72.2 | 63.9 | 29.943 | 7.41 | 0.0 | 0 | 0.00 | 0.00 | 0.00 | 0.00 |
| 09/05/26 1:39:31 AM | 28 | 1.0 | 3.0 | 47 | 60 | 72.2 | 63.9 | 29.941 | 7.41 | 0.0 | 0 | 0.00 | 0.00 | 0.00 | 0.00 |
| 09/05/26 1:40:20 AM | 30 | 2.0 | 3.0 | 47 | 60 | 72.2 | 63.9 | 29.943 | 7.41 | 0.0 | 0 | 0.00 | 0.00 | 0.00 | 0.00 |
| 09/05/26 1:41:32 AM | 31 | 1.0 | 3.0 | 47 | 60 | 72.2 | 63.9 | 29.942 | 7.41 | 0.0 | 0 | 0.00 | 0.00 | 0.00 | 0.00 |
| 09/05/26 1:42:27 AM | 35 | 1.0 | 3.0 | 47 | 60 | 72.2 | 63.8 | 29.941 | 7.41 | 0.0 | 0 | 0.00 | 0.00 | 0.00 | 0.00 |
| 09/05/26 1:43:18 AM | 31 | 2.0 | 3.0 | 47 | 60 | 72.2 | 63.8 | 29.944 | 7.41 | 0.0 | 0 | 0.00 | 0.00 | 0.00 | 0.00 |
| 09/05/26 1:44:31 AM | 32 | 2.0 | 3.0 | 47 | 60 | 72.2 | 63.8 | 29.942 | 7.41 | 0.0 | 0 | 0.00 | 0.00 | 0.00 | 0.00 |
| 09/05/26 1:45:20 AM | 32 | 2.0 | 3.0 | 47 | 60 | 72.1 | 63.7 | 29.941 | 7.41 | 0.0 | 0 | 0.00 | 0.00 | 0.00 | 0.00 |
| 09/05/26 1:46:29 AM | 30 | 3.0 | 3.0 | 47 | 60 | 72.1 | 63.6 | 29.940 | 7.41 | 0.0 | 0 | 0.00 | 0.00 | 0.00 | 0.00 |
| 09/05/26 1:47:21 AM | 32 | 3.0 | 3.0 | 47 | 60 | 72.1 | 63.5 | 29.941 | 7.41 | 0.0 | 0 | 0.00 | 0.00 | 0.00 | 0.00 |
| 09/05/26 1:48:34 AM | 28 | 2.0 | 3.0 | 47 | 60 | 72.1 | 63.5 | 29.940 | 7.41 | 0.0 | 0 | 0.00 | 0.00 | 0.00 | 0.00 |
| 09/05/26 1:49:25 AM | 29 | 2.0 | 3.0 | 47 | 60 | 72.1 | 63.4 | 29.941 | 7.41 | 0.0 | 0 | 0.00 | 0.00 | 0.00 | 0.00 |
| 09/05/26 1:50:20 AM | 28 | 3.0 | 3.0 | 47 | 60 | 72.0 | 63.4 | 29.940 | 7.41 | 0.0 | 0 | 0.00 | 0.00 | 0.00 | 0.00 |
| 09/05/26 1:51:27 AM | 31 | 2.0 | 3.0 | 47 | 60 | 72.0 | 63.3 | 29.939 | 7.41 | 0.0 | 0 | 0.00 | 0.00 | 0.00 | 0.00 |
| 09/05/26 1:52:18 AM | 30 | 2.0 | 3.0 | 47 | 60 | 72.0 | 63.2 | 29.936 | 7.41 | 0.0 | 0 | 0.00 | 0.00 | 0.00 | 0.00 |
| 09/05/26 1:53:31 AM | 31 | 1.0 | 3.0 | 47 | 60 | 72.0 | 63.2 | 29.935 | 7.41 | 0.0 | 0 | 0.00 | 0.00 | 0.00 | 0.00 |
| 09/05/26 1:54:23 AM | 31 | 1.0 | 3.0 | 47 | 60 | 72.0 | 63.2 | 29.935 | 7.41 | 0.0 | 0 | 0.00 | 0.00 | 0.00 | 0.00 |
| 09/05/26 1:55:35 AM | 32 | 0.0 | 3.0 | 47 | 60 | 72.0 | 63.2 | 29.935 | 7.41 | 0.0 | 0 | 0.00 | 0.00 | 0.00 | 0.00 |
| 09/05/26 1:56:24 AM | 30 | 0.0 | 3.0 | 47 | 60 | 72.0 | 63.2 | 29.938 | 7.41 | 0.0 | 0 | 0.00 | 0.00 | 0.00 | 0.00 |
| 09/05/26 1:57:34 AM | 31 | 0.0 | 3.0 | 47 | 60 | 72.0 | 63.1 | 29.936 | 7.41 | 0.0 | 0 | 0.00 | 0.00 | 0.00 | 0.00 |
| 09/05/26 1:58:28 AM | 28 | 0.0 | 3.0 | 47 | 60 | 72.0 | 63.1 | 29.940 | 7.41 | 0.0 | 0 | 0.00 | 0.00 | 0.00 | 0.00 |
| 09/05/26 1:59:20 AM | 34 | 0.0 | 3.0 | 47 | 60 | 72.0 | 63.1 | 29.940 | 7.41 | 0.0 | 0 | 0.00 | 0.00 | 0.00 | 0.00 |
| 09/05/26 2:00:33 AM | 31 | 0.0 | 3.0 | 47 | 60 | 72.0 | 63.1 | 29.938 | 7.41 | 0.0 | 0 | 0.00 | 0.00 | 0.00 | 0.00 |
| 09/05/26 2:01:21 AM | 31 | 0.0 | 3.0 | 47 | 60 | 71.9 | 63.1 | 29.940 | 7.41 | 0.0 | 0 | 0.00 | 0.00 | 0.00 | 0.00 |
| 09/05/26 2:02:34 AM | 35 | 0.0 | 3.0 | 47 | 60 | 71.9 | 63.0 | 29.940 | 7.41 | 0.0 | 0 | 0.00 | 0.00 | 0.00 | 0.00 |
| 09/05/26 2:03:25 AM | 31 | 0.0 | 3.0 | 47 | 60 | 71.9 | 63.0 | 29.939 | 7.41 | 0.0 | 0 | 0.00 | 0.00 | 0.00 | 0.00 |
| 09/05/26 2:04:17 AM | 30 | 0.0 | 3.0 | 47 | 60 | 71.9 | 63.0 | 29.939 | 7.41 | 0.0 | 0 | 0.00 | 0.00 | 0.00 | 0.00 |
| 09/05/26 2:05:30 AM | 31 | 0.0 | 3.0 | 47 | 60 | 71.9 | 62.9 | 29.936 | 7.41 | 0.0 | 0 | 0.00 | 0.00 | 0.00 | 0.00 |
| 09/05/26 2:06:22 AM | 35 | 0.0 | 3.0 | 47 | 60 | 71.9 | 62.9 | 29.936 | 7.41 | 0.0 | 0 | 0.00 | 0.00 | 0.00 | 0.00 |
| 09/05/26 2:07:28 AM | 30 | 0.0 | 3.0 | 47 | 60 | 71.9 | 62.8 | 29.935 | 7.41 | 0.0 | 0 | 0.00 | 0.00 | 0.00 | 0.00 |
| 09/05/26 2:08:20 AM | 30 | 0.0 | 3.0 | 47 | 60 | 71.8 | 62.8 | 29.935 | 7.41 | 0.0 | 0 | 0.00 | 0.00 | 0.00 | 0.00 |
| 09/05/26 2:09:33 AM | 30 | 0.0 | 3.0 | 47 | 60 | 71.9 | 62.7 | 29.936 | 7.41 | 0.0 | 0 | 0.00 | 0.00 | 0.00 | 0.00 |
| 09/05/26 2:10:24 AM | 31 | 0.0 | 3.0 | 47 | 60 | 71.9 | 62.7 | 29.935 | 7.41 | 0.0 | 0 | 0.00 | 0.00 | 0.00 | 0.00 |
| 09/05/26 2:11:16 AM | 23 | 0.0 | 3.0 | 47 | 60 | 71.9 | 62.7 | 29.935 | 7.41 | 0.0 | 0 | 0.00 | 0.00 | 0.00 | 0.00 |
| 09/05/26 2:12:26 AM | 29 | 0.0 | 3.0 | 47 | 60 | 71.9 | 62.6 | 29.934 | 7.41 | 0.0 | 0 | 0.00 | 0.00 | 0.00 | 0.00 |
| 09/05/26 2:13:17 AM | 30 | 0.0 | 3.0 | 47 | 60 | 71.9 | 62.5 | 29.932 | 7.41 | 0.0 | 0 | 0.00 | 0.00 | 0.00 | 0.00 |
| 09/05/26 2:14:27 AM | 34 | 0.0 | 3.0 | 47 | 60 | 71.9 | 62.4 | 29.932 | 7.41 | 0.0 | 0 | 0.00 | 0.00 | 0.00 | 0.00 |
| 09/05/26 2:15:22 AM | 31 | 0.0 | 3.0 | 47 | 60 | 71.9 | 62.4 | 29.935 | 7.41 | 0.0 | 0 | 0.00 | 0.00 | 0.00 | 0.00 |
| 09/05/26 2:16:31 AM | 25 | 0.0 | 3.0 | 47 | 61 | 71.9 | 62.3 | 29.931 | 7.41 | 0.0 | 0 | 0.00 | 0.00 | 0.00 | 0.00 |
| 09/05/26 2:17:20 AM | 30 | 0.0 | 3.0 | 47 | 61 | 71.9 | 62.3 | 29.936 | 7.41 | 0.0 | 0 | 0.00 | 0.00 | 0.00 | 0.00 |
| 09/05/26 2:18:30 AM | 32 | 0.0 | 3.0 | 47 | 61 | 71.8 | 62.2 | 29.933 | 7.41 | 0.0 | 0 | 0.00 | 0.00 | 0.00 | 0.00 |
| 09/05/26 2:19:21 AM | 31 | 0.0 | 3.0 | 47 | 61 | 71.9 | 62.2 | 29.937 | 7.41 | 0.0 | 0 | 0.00 | 0.00 | 0.00 | 0.00 |
| 09/05/26 2:20:34 AM | 28 | 0.0 | 3.0 | 47 | 61 | 71.8 | 62.2 | 29.936 | 7.41 | 0.0 | 0 | 0.00 | 0.00 | 0.00 | 0.00 |
| 09/05/26 2:21:26 AM | 26 | 0.0 | 3.0 | 47 | 61 | 71.8 | 62.2 | 29.933 | 7.41 | 0.0 | 0 | 0.00 | 0.00 | 0.00 | 0.00 |
| 09/05/26 2:22:17 AM | 31 | 0.0 | 3.0 | 47 | 61 | 71.9 | 62.2 | 29.933 | 7.41 | 0.0 | 0 | 0.00 | 0.00 | 0.00 | 0.00 |
| 09/05/26 2:23:27 AM | 32 | 0.0 | 3.0 | 47 | 61 | 71.8 | 62.2 | 29.930 | 7.41 | 0.0 | 0 | 0.00 | 0.00 | 0.00 | 0.00 |
| 09/05/26 2:24:19 AM | 32 | 0.0 | 3.0 | 47 | 62 | 71.8 | 62.2 | 29.931 | 7.41 | 0.0 | 0 | 0.00 | 0.00 | 0.00 | 0.00 |
| 09/05/26 2:25:32 AM | 30 | 0.0 | 3.0 | 47 | 62 | 71.8 | 62.2 | 29.933 | 7.41 | 0.0 | 0 | 0.00 | 0.00 | 0.00 | 0.00 |
| 09/05/26 2:26:23 AM | 28 | 0.0 | 3.0 | 47 | 62 | 71.8 | 62.2 | 29.935 | 7.41 | 0.0 | 0 | 0.00 | 0.00 | 0.00 | 0.00 |
| 09/05/26 2:27:36 AM | 30 | 0.0 | 3.0 | 47 | 62 | 71.8 | 62.2 | 29.933 | 7.41 | 0.0 | 0 | 0.00 | 0.00 | 0.00 | 0.00 |
| 09/05/26 2:28:25 AM | 32 | 0.0 | 3.0 | 47 | 62 | 71.8 | 62.2 | 29.931 | 7.41 | 0.0 | 0 | 0.00 | 0.00 | 0.00 | 0.00 |
| 09/05/26 2:29:34 AM | 28 | 0.0 | 3.0 | 47 | 62 | 71.8 | 62.3 | 29.934 | 7.41 | 0.0 | 0 | 0.00 | 0.00 | 0.00 | 0.00 |
| 09/05/26 2:30:29 AM | 32 | 0.0 | 3.0 | 47 | 62 | 71.8 | 62.3 | 29.933 | 7.41 | 0.0 | 0 | 0.00 | 0.00 | 0.00 | 0.00 |
| 09/05/26 2:31:20 AM | 30 | 0.0 | 3.0 | 47 | 62 | 71.8 | 62.3 | 29.933 | 7.41 | 0.0 | 0 | 0.00 | 0.00 | 0.00 | 0.00 |
| 09/05/26 2:32:30 AM | 29 | 0.0 | 3.0 | 47 | 63 | 71.8 | 62.3 | 29.932 | 7.41 | 0.0 | 0 | 0.00 | 0.00 | 0.00 | 0.00 |
| 09/05/26 2:33:19 AM | 28 | 0.0 | 3.0 | 47 | 63 | 71.8 | 62.3 | 29.934 | 7.41 | 0.0 | 0 | 0.00 | 0.00 | 0.00 | 0.00 |
| 09/05/26 2:34:31 AM | 29 | 0.0 | 3.0 | 47 | 63 | 71.8 | 62.3 | 29.934 | 7.41 | 0.0 | 0 | 0.00 | 0.00 | 0.00 | 0.00 |
| 09/05/26 2:35:23 AM | 32 | 0.0 | 3.0 | 47 | 63 | 71.8 | 62.3 | 29.931 | 7.41 | 0.0 | 0 | 0.00 | 0.00 | 0.00 | 0.00 |
| 09/05/26 2:36:36 AM | 32 | 0.0 | 3.0 | 47 | 63 | 71.8 | 62.3 | 29.933 | 7.41 | 0.0 | 0 | 0.00 | 0.00 | 0.00 | 0.00 |
| 09/05/26 2:37:27 AM | 31 | 0.0 | 3.0 | 47 | 63 | 71.7 | 62.4 | 29.933 | 7.41 | 0.0 | 0 | 0.00 | 0.00 | 0.00 | 0.00 |
| 09/05/26 2:38:19 AM | 29 | 0.0 | 3.0 | 47 | 63 | 71.7 | 62.4 | 29.933 | 7.41 | 0.0 | 0 | 0.00 | 0.00 | 0.00 | 0.00 |
| 09/05/26 2:39:26 AM | 30 | 0.0 | 3.0 | 47 | 62 | 71.7 | 62.3 | 29.934 | 7.41 | 0.0 | 0 | 0.00 | 0.00 | 0.00 | 0.00 |
| 09/05/26 2:40:20 AM | 32 | 0.0 | 3.0 | 47 | 62 | 71.8 | 62.3 | 29.934 | 7.41 | 0.0 | 0 | 0.00 | 0.00 | 0.00 | 0.00 |
| 09/05/26 2:41:30 AM | 32 | 0.0 | 3.0 | 47 | 62 | 71.7 | 62.3 | 29.933 | 7.41 | 0.0 | 0 | 0.00 | 0.00 | 0.00 | 0.00 |
| 09/05/26 2:42:25 AM | 32 | 0.0 | 3.0 | 47 | 62 | 71.7 | 62.3 | 29.933 | 7.41 | 0.0 | 0 | 0.00 | 0.00 | 0.00 | 0.00 |
| 09/05/26 2:43:17 AM | 31 | 0.0 | 3.0 | 47 | 62 | 71.7 | 62.3 | 29.936 | 7.41 | 0.0 | 0 | 0.00 | 0.00 | 0.00 | 0.00 |
| 09/05/26 2:44:23 AM | 28 | 0.0 | 3.0 | 47 | 62 | 71.7 | 62.3 | 29.935 | 7.41 | 0.0 | 0 | 0.00 | 0.00 | 0.00 | 0.00 |
| 09/05/26 2:45:18 AM | 28 | 0.0 | 3.0 | 47 | 62 | 71.7 | 62.3 | 29.934 | 7.41 | 0.0 | 0 | 0.00 | 0.00 | 0.00 | 0.00 |
| 09/05/26 2:46:28 AM | 31 | 0.0 | 3.0 | 47 | 62 | 71.7 | 62.3 | 29.937 | 7.41 | 0.0 | 0 | 0.00 | 0.00 | 0.00 | 0.00 |
| 09/05/26 2:47:19 AM | 29 | 0.0 | 3.0 | 47 | 62 | 71.7 | 62.3 | 29.935 | 7.41 | 0.0 | 0 | 0.00 | 0.00 | 0.00 | 0.00 |
| 09/05/26 2:48:32 AM | 30 | 0.0 | 3.0 | 47 | 62 | 71.7 | 62.2 | 29.935 | 7.41 | 0.0 | 0 | 0.00 | 0.00 | 0.00 | 0.00 |
| 09/05/26 2:49:21 AM | 32 | 0.0 | 3.0 | 47 | 62 | 71.7 | 62.2 | 29.935 | 7.41 | 0.0 | 0 | 0.00 | 0.00 | 0.00 | 0.00 |
| 09/05/26 2:50:33 AM | 29 | 0.0 | 3.0 | 47 | 62 | 71.7 | 62.2 | 29.937 | 7.41 | 0.0 | 0 | 0.00 | 0.00 | 0.00 | 0.00 |
| 09/05/26 2:51:25 AM | 30 | 0.0 | 3.0 | 47 | 62 | 71.7 | 62.2 | 29.937 | 7.41 | 0.0 | 0 | 0.00 | 0.00 | 0.00 | 0.00 |
| 09/05/26 2:52:35 AM | 28 | 0.0 | 3.0 | 47 | 62 | 71.7 | 62.2 | 29.934 | 7.41 | 0.0 | 0 | 0.00 | 0.00 | 0.00 | 0.00 |
| 09/05/26 2:53:27 AM | 31 | 0.0 | 3.0 | 47 | 62 | 71.7 | 62.1 | 29.937 | 7.41 | 0.0 | 0 | 0.00 | 0.00 | 0.00 | 0.00 |
| 09/05/26 2:54:15 AM | 32 | 0.0 | 3.0 | 47 | 62 | 71.7 | 62.1 | 29.937 | 7.41 | 0.0 | 0 | 0.00 | 0.00 | 0.00 | 0.00 |
| 09/05/26 2:55:25 AM | 32 | 0.0 | 3.0 | 47 | 63 | 71.7 | 62.1 | 29.935 | 7.41 | 0.0 | 0 | 0.00 | 0.00 | 0.00 | 0.00 |
| 09/05/26 2:56:16 AM | 25 | 0.0 | 3.0 | 47 | 63 | 71.7 | 62.1 | 29.935 | 7.41 | 0.0 | 0 | 0.00 | 0.00 | 0.00 | 0.00 |
| 09/05/26 2:57:29 AM | 29 | 0.0 | 3.0 | 47 | 63 | 71.7 | 62.0 | 29.934 | 7.41 | 0.0 | 0 | 0.00 | 0.00 | 0.00 | 0.00 |
| 09/05/26 2:58:21 AM | 32 | 0.0 | 3.0 | 47 | 63 | 71.7 | 62.0 | 29.934 | 7.41 | 0.0 | 0 | 0.00 | 0.00 | 0.00 | 0.00 |
| 09/05/26 2:59:30 AM | 31 | 0.0 | 3.0 | 47 | 63 | 71.7 | 62.0 | 29.933 | 7.41 | 0.0 | 0 | 0.00 | 0.00 | 0.00 | 0.00 |
| 09/05/26 3:00:22 AM | 29 | 0.0 | 3.0 | 47 | 64 | 71.7 | 62.0 | 29.935 | 7.41 | 0.0 | 0 | 0.00 | 0.00 | 0.00 | 0.00 |
| 09/05/26 3:01:32 AM | 32 | 0.0 | 3.0 | 47 | 64 | 71.6 | 62.0 | 29.933 | 7.41 | 0.0 | 0 | 0.00 | 0.00 | 0.00 | 0.00 |
| 09/05/26 3:02:23 AM | 31 | 1.0 | 3.0 | 47 | 64 | 71.6 | 62.0 | 29.934 | 7.41 | 0.0 | 0 | 0.00 | 0.00 | 0.00 | 0.00 |
| 09/05/26 3:03:36 AM | 28 | 2.0 | 3.0 | 47 | 64 | 71.6 | 62.0 | 29.933 | 7.41 | 0.0 | 0 | 0.00 | 0.00 | 0.00 | 0.00 |
| 09/05/26 3:04:28 AM | 28 | 2.0 | 3.0 | 47 | 64 | 71.6 | 62.0 | 29.934 | 7.41 | 0.0 | 0 | 0.00 | 0.00 | 0.00 | 0.00 |
| 09/05/26 3:05:16 AM | 32 | 1.0 | 3.0 | 47 | 64 | 71.6 | 62.0 | 29.932 | 7.41 | 0.0 | 0 | 0.00 | 0.00 | 0.00 | 0.00 |
| 09/05/26 3:06:29 AM | 32 | 2.0 | 3.0 | 47 | 64 | 71.7 | 62.0 | 29.933 | 7.41 | 0.0 | 0 | 0.00 | 0.00 | 0.00 | 0.00 |
| 09/05/26 3:07:21 AM | 32 | 0.0 | 3.0 | 47 | 64 | 71.6 | 62.0 | 29.935 | 7.41 | 0.0 | 0 | 0.00 | 0.00 | 0.00 | 0.00 |
| 09/05/26 3:08:34 AM | 30 | 0.0 | 3.0 | 47 | 64 | 71.6 | 62.0 | 29.935 | 7.41 | 0.0 | 0 | 0.00 | 0.00 | 0.00 | 0.00 |
| 09/05/26 3:09:25 AM | 29 | 0.0 | 3.0 | 47 | 64 | 71.6 | 62.0 | 29.934 | 7.41 | 0.0 | 0 | 0.00 | 0.00 | 0.00 | 0.00 |
University Police wind advisory reference
For campus closure information please call the campus Emergency Hotline at (909) 537-5999
© All rights reserved. Unauthorized duplication or distribution is prohibited
Never base important decisions on this or any weather information obtained from the Internet
California State University, San Bernardino
5500 University Parkway, San Bernardino, CA. 92407
Phone: (909) 537-5108, Email: Weather Webmaster
Last Updated: